Weather in Nashik

India     19°58′42″N   73°47′31″E
temp.,
°C
wind,
m/s
gust,
m/s
humid.,
%
clouds,
%
prec.,
mm/h
press.,
hPa
HPBL,
m
12 april, mon
mon1223:30+28wsw341955 0.0 101369
02:30+27wnw242284 0.0 1012130
05:30+26w332536 0.0 101353
08:30+29nw47222 0.0 1015544
11:30+35n54135 0.0 10132815
14:30+37nnw431150 0.0 10094511
17:30+35n5412100 0.0 10083006
20:30+30nw613175 0.0 1012493
13 april, tue
tue1323:30+27wsw35215 0.0 1013107
02:30+26w233120 0.0 101286
05:30+25w11345 0.0 101211
08:30+29nne36215 0.0 1014471
11:30+36ne441083 0.0 10123193
14:30+36e541097 0.0 10094371
17:30+36ne231071 0.0 10074195
20:30+29wnw410215 0.0 1011342
14 april, wed
wed1423:30+27wnw3103084 0.0 1012453
02:30+25nnw013477 0.0 101011
05:30+25wnw223477 0.0 101124
08:30+29nw34256 0.0 1013510
11:30+33nnw331815 0.3 10132312
14:30+36ese021457 0.0 10084066
17:30+26n694066 1.2 1010448
20:30+25nne712395 1.1 1012305
15 april, thu
thu1523:30+25wnw23350 1.1 101345
02:30+24wnw34412 0.0 101185
05:30+23wnw33411 0.0 101247
08:30+27nw46340 0.0 1014498
11:30+33nw43200 0.0 10132205
14:30+35wnw43153 0.0 10093613
17:30+33wnw96182 0.0 10082113
20:30+26wnw511330 0.0 1011501
16 april, fri
fri1623:30+24w37400 0.0 1012239
02:30+22w36430 0.0 1010162
05:30+20w35650 0.0 1012115
08:30+25nw34460 0.0 1013376
11:30+32nw32210 0.0 10121565
14:30+35w33163 0.0 10083589
17:30+35w64165 0.0 10073664
20:30+27w47480 0.0 1010390